Location: Hains Lake
(37.8540°N, 99.8578°W)
Time: 21:53:23
(UTC+00:00)

Explorer 7 - Pass Details

Date: 19 April 2021
Orbit: 484 x 677 km, 50.3° (Epoch: 13 May)

Event Time Altitude Azimuth Distance (km) Brightness Sun altitude
Exits shadow 09:42:03 16° 145° (SE) 1,699 9.2 -24.7°
Drops below altitude 10° 09:43:06 10° 142° (SE) 2,090 9.7 -24.6°
Sets 09:45:30 0° 139° (SE) 3,009 10.6 -24.2°
